<?xml version="1.0" encoding="UTF-8" standalone="no" ?>
<gpx xmlns="http://www.topografix.com/GPX/1/1" xmlns:xsi="http://www.w3.org/2001/XMLSchema-instance" xsi:schemaLocation="http://www.topografix.com/GPX/1/1 http://www.topografix.com/GPX/1/1/gpx.xsd" version="1.1" creator="VisuGPX - https://www.visugpx.com">
  <metadata>
    <name>TG19 15KMS</name>
    <desc><![CDATA[                                                            ]]></desc>
  </metadata>
  <trk>
    <name><![CDATA[TG19 15KMS_1]]></name>
    <trkseg>
      <trkpt lat="46.72859" lon="-0.16522">
        <ele>123.1</ele>
        <time>2019-02-03T21:00:41.000Z</time>
      </trkpt>
      <trkpt lat="46.72892" lon="-0.16518">
        <ele>123.2</ele>
        <time>2019-02-03T21:00:45.424Z</time>
      </trkpt>
      <trkpt lat="46.729" lon="-0.1652">
        <ele>123.2</ele>
        <time>2019-02-03T21:00:46.508Z</time>
      </trkpt>
      <trkpt lat="46.72913" lon="-0.16527">
        <ele>123.1</ele>
        <time>2019-02-03T21:00:48.359Z</time>
      </trkpt>
      <trkpt lat="46.72943" lon="-0.1654">
        <ele>123.9</ele>
        <time>2019-02-03T21:00:52.540Z</time>
      </trkpt>
      <trkpt lat="46.7297" lon="-0.16556">
        <ele>123.2</ele>
        <time>2019-02-03T21:00:56.433Z</time>
      </trkpt>
      <trkpt lat="46.72993" lon="-0.16574">
        <ele>122.9</ele>
        <time>2019-02-03T21:00:59.920Z</time>
      </trkpt>
      <trkpt lat="46.73" lon="-0.16581">
        <ele>122.9</ele>
        <time>2019-02-03T21:01:01.054Z</time>
      </trkpt>
      <trkpt lat="46.73015" lon="-0.16587">
        <ele>122.6</ele>
        <time>2019-02-03T21:01:03.132Z</time>
      </trkpt>
      <trkpt lat="46.73018" lon="-0.16584">
        <ele>122.4</ele>
        <time>2019-02-03T21:01:03.618Z</time>
      </trkpt>
      <trkpt lat="46.73026" lon="-0.16575">
        <ele>122</ele>
        <time>2019-02-03T21:01:04.968Z</time>
      </trkpt>
      <trkpt lat="46.73043" lon="-0.16559">
        <ele>121.6</ele>
        <time>2019-02-03T21:01:07.671Z</time>
      </trkpt>
      <trkpt lat="46.73072" lon="-0.16526">
        <ele>120.5</ele>
        <time>2019-02-03T21:01:12.584Z</time>
      </trkpt>
      <trkpt lat="46.73097" lon="-0.1648">
        <ele>117.3</ele>
        <time>2019-02-03T21:01:17.960Z</time>
      </trkpt>
      <trkpt lat="46.73152" lon="-0.16361">
        <ele>112.5</ele>
        <time>2019-02-03T21:01:31.103Z</time>
      </trkpt>
      <trkpt lat="46.73161" lon="-0.16346">
        <ele>112.3</ele>
        <time>2019-02-03T21:01:32.928Z</time>
      </trkpt>
      <trkpt lat="46.73177" lon="-0.16326">
        <ele>111.6</ele>
        <time>2019-02-03T21:01:35.743Z</time>
      </trkpt>
      <trkpt lat="46.73193" lon="-0.16311">
        <ele>111.2</ele>
        <time>2019-02-03T21:01:38.284Z</time>
      </trkpt>
      <trkpt lat="46.73204" lon="-0.16303">
        <ele>110.9</ele>
        <time>2019-02-03T21:01:39.926Z</time>
      </trkpt>
      <trkpt lat="46.73239" lon="-0.16277">
        <ele>110</ele>
        <time>2019-02-03T21:01:45.173Z</time>
      </trkpt>
      <trkpt lat="46.73255" lon="-0.16262">
        <ele>109.5</ele>
        <time>2019-02-03T21:01:47.714Z</time>
      </trkpt>
      <trkpt lat="46.73269" lon="-0.16244">
        <ele>109.5</ele>
        <time>2019-02-03T21:01:50.207Z</time>
      </trkpt>
      <trkpt lat="46.73305" lon="-0.16186">
        <ele>108.7</ele>
        <time>2019-02-03T21:01:57.372Z</time>
      </trkpt>
      <trkpt lat="46.73319" lon="-0.16166">
        <ele>108</ele>
        <time>2019-02-03T21:01:59.990Z</time>
      </trkpt>
      <trkpt lat="46.73334" lon="-0.1615">
        <ele>108</ele>
        <time>2019-02-03T21:02:02.472Z</time>
      </trkpt>
      <trkpt lat="46.73356" lon="-0.16136">
        <ele>107.2</ele>
        <time>2019-02-03T21:02:05.679Z</time>
      </trkpt>
      <trkpt lat="46.7338" lon="-0.16122">
        <ele>105.5</ele>
        <time>2019-02-03T21:02:09.132Z</time>
      </trkpt>
      <trkpt lat="46.73415" lon="-0.16108">
        <ele>103</ele>
        <time>2019-02-03T21:02:13.980Z</time>
      </trkpt>
      <trkpt lat="46.73457" lon="-0.16091">
        <ele>101.6</ele>
        <time>2019-02-03T21:02:19.803Z</time>
      </trkpt>
      <trkpt lat="46.73497" lon="-0.16077">
        <ele>99.9</ele>
        <time>2019-02-03T21:02:25.298Z</time>
      </trkpt>
      <trkpt lat="46.73516" lon="-0.16073">
        <ele>99.4</ele>
        <time>2019-02-03T21:02:27.863Z</time>
      </trkpt>
      <trkpt lat="46.73532" lon="-0.16073">
        <ele>99</ele>
        <time>2019-02-03T21:02:30.000Z</time>
      </trkpt>
      <trkpt lat="46.73548" lon="-0.16076">
        <ele>98.2</ele>
        <time>2019-02-03T21:02:32.155Z</time>
      </trkpt>
      <trkpt lat="46.73566" lon="-0.16084">
        <ele>97.7</ele>
        <time>2019-02-03T21:02:34.669Z</time>
      </trkpt>
      <trkpt lat="46.73601" lon="-0.16108">
        <ele>97.6</ele>
        <time>2019-02-03T21:02:39.835Z</time>
      </trkpt>
      <trkpt lat="46.73607" lon="-0.16084">
        <ele>96.2</ele>
        <time>2019-02-03T21:02:42.174Z</time>
      </trkpt>
      <trkpt lat="46.7361" lon="-0.16057">
        <ele>95.1</ele>
        <time>2019-02-03T21:02:44.678Z</time>
      </trkpt>
      <trkpt lat="46.73616" lon="-0.16024">
        <ele>93.9</ele>
        <time>2019-02-03T21:02:47.804Z</time>
      </trkpt>
      <trkpt lat="46.73624" lon="-0.15974">
        <ele>94</ele>
        <time>2019-02-03T21:02:52.505Z</time>
      </trkpt>
      <trkpt lat="46.73625" lon="-0.15952">
        <ele>93.3</ele>
        <time>2019-02-03T21:02:54.524Z</time>
      </trkpt>
      <trkpt lat="46.73622" lon="-0.15915">
        <ele>92.7</ele>
        <time>2019-02-03T21:02:57.935Z</time>
      </trkpt>
      <trkpt lat="46.73591" lon="-0.15839">
        <ele>92.9</ele>
        <time>2019-02-03T21:03:06.033Z</time>
      </trkpt>
      <trkpt lat="46.73578" lon="-0.15787">
        <ele>93.9</ele>
        <time>2019-02-03T21:03:11.101Z</time>
      </trkpt>
      <trkpt lat="46.7357" lon="-0.15712">
        <ele>94.4</ele>
        <time>2019-02-03T21:03:18.051Z</time>
      </trkpt>
      <trkpt lat="46.73563" lon="-0.15675">
        <ele>95.7</ele>
        <time>2019-02-03T21:03:21.565Z</time>
      </trkpt>
      <trkpt lat="46.73561" lon="-0.15638">
        <ele>96.2</ele>
        <time>2019-02-03T21:03:24.963Z</time>
      </trkpt>
      <trkpt lat="46.73561" lon="-0.15624">
        <ele>96.7</ele>
        <time>2019-02-03T21:03:26.245Z</time>
      </trkpt>
      <trkpt lat="46.73561" lon="-0.15621">
        <ele>96.8</ele>
        <time>2019-02-03T21:03:26.519Z</time>
      </trkpt>
      <trkpt lat="46.73562" lon="-0.15589">
        <ele>98.6</ele>
        <time>2019-02-03T21:03:29.452Z</time>
      </trkpt>
      <trkpt lat="46.73571" lon="-0.1556">
        <ele>99.5</ele>
        <time>2019-02-03T21:03:32.367Z</time>
      </trkpt>
      <trkpt lat="46.73577" lon="-0.1553">
        <ele>101.6</ele>
        <time>2019-02-03T21:03:35.228Z</time>
      </trkpt>
      <trkpt lat="46.73582" lon="-0.15483">
        <ele>106.1</ele>
        <time>2019-02-03T21:03:39.583Z</time>
      </trkpt>
      <trkpt lat="46.73581" lon="-0.1541">
        <ele>111.3</ele>
        <time>2019-02-03T21:03:46.268Z</time>
      </trkpt>
      <trkpt lat="46.73583" lon="-0.15375">
        <ele>113.5</ele>
        <time>2019-02-03T21:03:49.484Z</time>
      </trkpt>
      <trkpt lat="46.73588" lon="-0.15364">
        <ele>114.2</ele>
        <time>2019-02-03T21:03:50.693Z</time>
      </trkpt>
      <trkpt lat="46.73603" lon="-0.15349">
        <ele>115.5</ele>
        <time>2019-02-03T21:03:53.122Z</time>
      </trkpt>
      <trkpt lat="46.73621" lon="-0.15334">
        <ele>116.7</ele>
        <time>2019-02-03T21:03:55.891Z</time>
      </trkpt>
      <trkpt lat="46.7365" lon="-0.15308">
        <ele>119.7</ele>
        <time>2019-02-03T21:04:00.438Z</time>
      </trkpt>
      <trkpt lat="46.73659" lon="-0.15306">
        <ele>120.4</ele>
        <time>2019-02-03T21:04:01.654Z</time>
      </trkpt>
      <trkpt lat="46.73715" lon="-0.15301">
        <ele>123.1</ele>
        <time>2019-02-03T21:04:09.149Z</time>
      </trkpt>
      <trkpt lat="46.73737" lon="-0.15297">
        <ele>124.9</ele>
        <time>2019-02-03T21:04:12.111Z</time>
      </trkpt>
      <trkpt lat="46.73783" lon="-0.15275">
        <ele>127.6</ele>
        <time>2019-02-03T21:04:18.578Z</time>
      </trkpt>
      <trkpt lat="46.73827" lon="-0.15254">
        <ele>130.7</ele>
        <time>2019-02-03T21:04:24.763Z</time>
      </trkpt>
      <trkpt lat="46.73865" lon="-0.15228">
        <ele>134.2</ele>
        <time>2019-02-03T21:04:30.370Z</time>
      </trkpt>
      <trkpt lat="46.7387" lon="-0.15221">
        <ele>134.5</ele>
        <time>2019-02-03T21:04:31.296Z</time>
      </trkpt>
      <trkpt lat="46.73872" lon="-0.15217">
        <ele>135.4</ele>
        <time>2019-02-03T21:04:31.749Z</time>
      </trkpt>
      <trkpt lat="46.73877" lon="-0.15219">
        <ele>135.2</ele>
        <time>2019-02-03T21:04:32.442Z</time>
      </trkpt>
      <trkpt lat="46.73904" lon="-0.15216">
        <ele>139</ele>
        <time>2019-02-03T21:04:36.060Z</time>
      </trkpt>
      <trkpt lat="46.73943" lon="-0.15205">
        <ele>145.1</ele>
        <time>2019-02-03T21:04:41.367Z</time>
      </trkpt>
      <trkpt lat="46.7398" lon="-0.15192">
        <ele>148.5</ele>
        <time>2019-02-03T21:04:46.451Z</time>
      </trkpt>
      <trkpt lat="46.73998" lon="-0.15175">
        <ele>150.3</ele>
        <time>2019-02-03T21:04:49.315Z</time>
      </trkpt>
      <trkpt lat="46.74027" lon="-0.15152">
        <ele>152</ele>
        <time>2019-02-03T21:04:53.725Z</time>
      </trkpt>
      <trkpt lat="46.74052" lon="-0.15136">
        <ele>153.2</ele>
        <time>2019-02-03T21:04:57.372Z</time>
      </trkpt>
      <trkpt lat="46.74066" lon="-0.15123">
        <ele>154.3</ele>
        <time>2019-02-03T21:04:59.589Z</time>
      </trkpt>
      <trkpt lat="46.74068" lon="-0.15124">
        <ele>154.3</ele>
        <time>2019-02-03T21:04:59.871Z</time>
      </trkpt>
      <trkpt lat="46.7411" lon="-0.15128">
        <ele>153.8</ele>
        <time>2019-02-03T21:05:05.494Z</time>
      </trkpt>
      <trkpt lat="46.74143" lon="-0.1514">
        <ele>152.8</ele>
        <time>2019-02-03T21:05:10.037Z</time>
      </trkpt>
      <trkpt lat="46.74154" lon="-0.15139">
        <ele>152.5</ele>
        <time>2019-02-03T21:05:11.509Z</time>
      </trkpt>
      <trkpt lat="46.74177" lon="-0.15121">
        <ele>153.3</ele>
        <time>2019-02-03T21:05:14.996Z</time>
      </trkpt>
      <trkpt lat="46.74195" lon="-0.15113">
        <ele>153.8</ele>
        <time>2019-02-03T21:05:17.510Z</time>
      </trkpt>
      <trkpt lat="46.74218" lon="-0.15107">
        <ele>153.4</ele>
        <time>2019-02-03T21:05:20.631Z</time>
      </trkpt>
      <trkpt lat="46.7422" lon="-0.15107">
        <ele>153.4</ele>
        <time>2019-02-03T21:05:20.901Z</time>
      </trkpt>
      <trkpt lat="46.7422" lon="-0.15107">
        <ele>153.4</ele>
        <time>2019-02-03T21:05:20.901Z</time>
      </trkpt>
      <trkpt lat="46.74222" lon="-0.15106">
        <ele>153.4</ele>
        <time>2019-02-03T21:05:21.173Z</time>
      </trkpt>
      <trkpt lat="46.74272" lon="-0.15096">
        <ele>153.2</ele>
        <time>2019-02-03T21:05:27.915Z</time>
      </trkpt>
      <trkpt lat="46.74287" lon="-0.15096">
        <ele>152.9</ele>
        <time>2019-02-03T21:05:29.919Z</time>
      </trkpt>
      <trkpt lat="46.74337" lon="-0.15111">
        <ele>151</ele>
        <time>2019-02-03T21:05:36.738Z</time>
      </trkpt>
      <trkpt lat="46.74356" lon="-0.15114">
        <ele>150.8</ele>
        <time>2019-02-03T21:05:39.291Z</time>
      </trkpt>
      <trkpt lat="46.74374" lon="-0.15112">
        <ele>150.5</ele>
        <time>2019-02-03T21:05:41.703Z</time>
      </trkpt>
      <trkpt lat="46.74411" lon="-0.15111">
        <ele>149.2</ele>
        <time>2019-02-03T21:05:46.647Z</time>
      </trkpt>
      <trkpt lat="46.74431" lon="-0.15115">
        <ele>149.2</ele>
        <time>2019-02-03T21:05:49.344Z</time>
      </trkpt>
      <trkpt lat="46.7445" lon="-0.15125">
        <ele>149.4</ele>
        <time>2019-02-03T21:05:52.042Z</time>
      </trkpt>
      <trkpt lat="46.74478" lon="-0.15145">
        <ele>150.8</ele>
        <time>2019-02-03T21:05:56.207Z</time>
      </trkpt>
      <trkpt lat="46.74509" lon="-0.15173">
        <ele>154</ele>
        <time>2019-02-03T21:06:01.078Z</time>
      </trkpt>
      <trkpt lat="46.74526" lon="-0.1519">
        <ele>155.8</ele>
        <time>2019-02-03T21:06:03.831Z</time>
      </trkpt>
      <trkpt lat="46.74571" lon="-0.15253">
        <ele>159.6</ele>
        <time>2019-02-03T21:06:12.162Z</time>
      </trkpt>
      <trkpt lat="46.74576" lon="-0.15268">
        <ele>159.7</ele>
        <time>2019-02-03T21:06:13.689Z</time>
      </trkpt>
      <trkpt lat="46.7458" lon="-0.15294">
        <ele>159.8</ele>
        <time>2019-02-03T21:06:16.128Z</time>
      </trkpt>
      <trkpt lat="46.74588" lon="-0.15293">
        <ele>160.2</ele>
        <time>2019-02-03T21:06:17.201Z</time>
      </trkpt>
      <trkpt lat="46.74593" lon="-0.15288">
        <ele>160.3</ele>
        <time>2019-02-03T21:06:18.011Z</time>
      </trkpt>
      <trkpt lat="46.74608" lon="-0.15262">
        <ele>160.4</ele>
        <time>2019-02-03T21:06:21.122Z</time>
      </trkpt>
      <trkpt lat="46.74617" lon="-0.15246">
        <ele>160.3</ele>
        <time>2019-02-03T21:06:23.017Z</time>
      </trkpt>
      <trkpt lat="46.74623" lon="-0.15244">
        <ele>160.6</ele>
        <time>2019-02-03T21:06:23.839Z</time>
      </trkpt>
      <trkpt lat="46.74628" lon="-0.15245">
        <ele>160.7</ele>
        <time>2019-02-03T21:06:24.513Z</time>
      </trkpt>
      <trkpt lat="46.7463" lon="-0.15247">
        <ele>160.7</ele>
        <time>2019-02-03T21:06:24.908Z</time>
      </trkpt>
      <trkpt lat="46.74631" lon="-0.15247">
        <ele>160.7</ele>
        <time>2019-02-03T21:06:24.993Z</time>
      </trkpt>
      <trkpt lat="46.74729" lon="-0.15353">
        <ele>161</ele>
        <time>2019-02-03T21:06:41.289Z</time>
      </trkpt>
      <trkpt lat="46.74771" lon="-0.15399">
        <ele>160.2</ele>
        <time>2019-02-03T21:06:48.304Z</time>
      </trkpt>
      <trkpt lat="46.74785" lon="-0.1542">
        <ele>160</ele>
        <time>2019-02-03T21:06:50.986Z</time>
      </trkpt>
      <trkpt lat="46.74817" lon="-0.15497">
        <ele>158.6</ele>
        <time>2019-02-03T21:06:59.230Z</time>
      </trkpt>
      <trkpt lat="46.7487" lon="-0.15635">
        <ele>148.8</ele>
        <time>2019-02-03T21:07:13.712Z</time>
      </trkpt>
      <trkpt lat="46.74874" lon="-0.15644">
        <ele>148.3</ele>
        <time>2019-02-03T21:07:14.694Z</time>
      </trkpt>
      <trkpt lat="46.74883" lon="-0.15653">
        <ele>147.6</ele>
        <time>2019-02-03T21:07:16.152Z</time>
      </trkpt>
      <trkpt lat="46.74894" lon="-0.15664">
        <ele>147.8</ele>
        <time>2019-02-03T21:07:17.933Z</time>
      </trkpt>
      <trkpt lat="46.749" lon="-0.15674">
        <ele>148.7</ele>
        <time>2019-02-03T21:07:19.150Z</time>
      </trkpt>
      <trkpt lat="46.74903" lon="-0.15619">
        <ele>149.4</ele>
        <time>2019-02-03T21:07:24.201Z</time>
      </trkpt>
      <trkpt lat="46.74917" lon="-0.15558">
        <ele>154.8</ele>
        <time>2019-02-03T21:07:30.090Z</time>
      </trkpt>
      <trkpt lat="46.74921" lon="-0.15541">
        <ele>156.3</ele>
        <time>2019-02-03T21:07:31.735Z</time>
      </trkpt>
      <trkpt lat="46.74921" lon="-0.1551">
        <ele>157.7</ele>
        <time>2019-02-03T21:07:34.573Z</time>
      </trkpt>
      <trkpt lat="46.74925" lon="-0.15485">
        <ele>158.5</ele>
        <time>2019-02-03T21:07:36.923Z</time>
      </trkpt>
      <trkpt lat="46.74946" lon="-0.15448">
        <ele>159.9</ele>
        <time>2019-02-03T21:07:41.321Z</time>
      </trkpt>
      <trkpt lat="46.74962" lon="-0.15426">
        <ele>160</ele>
        <time>2019-02-03T21:07:44.258Z</time>
      </trkpt>
      <trkpt lat="46.74965" lon="-0.15416">
        <ele>160</ele>
        <time>2019-02-03T21:07:45.257Z</time>
      </trkpt>
      <trkpt lat="46.74971" lon="-0.15372">
        <ele>160</ele>
        <time>2019-02-03T21:07:49.364Z</time>
      </trkpt>
      <trkpt lat="46.74976" lon="-0.15357">
        <ele>160</ele>
        <time>2019-02-03T21:07:50.891Z</time>
      </trkpt>
      <trkpt lat="46.75002" lon="-0.15387">
        <ele>160</ele>
        <time>2019-02-03T21:07:55.319Z</time>
      </trkpt>
      <trkpt lat="46.75037" lon="-0.15418">
        <ele>160</ele>
        <time>2019-02-03T21:08:00.789Z</time>
      </trkpt>
      <trkpt lat="46.75057" lon="-0.15433">
        <ele>160</ele>
        <time>2019-02-03T21:08:03.793Z</time>
      </trkpt>
      <trkpt lat="46.7509" lon="-0.15463">
        <ele>160</ele>
        <time>2019-02-03T21:08:08.987Z</time>
      </trkpt>
      <trkpt lat="46.75098" lon="-0.15475">
        <ele>160</ele>
        <time>2019-02-03T21:08:10.520Z</time>
      </trkpt>
      <trkpt lat="46.75103" lon="-0.15485">
        <ele>160</ele>
        <time>2019-02-03T21:08:11.653Z</time>
      </trkpt>
      <trkpt lat="46.75108" lon="-0.15502">
        <ele>159.9</ele>
        <time>2019-02-03T21:08:13.346Z</time>
      </trkpt>
      <trkpt lat="46.75125" lon="-0.15591">
        <ele>159</ele>
        <time>2019-02-03T21:08:21.803Z</time>
      </trkpt>
      <trkpt lat="46.75131" lon="-0.15613">
        <ele>159</ele>
        <time>2019-02-03T21:08:23.970Z</time>
      </trkpt>
      <trkpt lat="46.75153" lon="-0.15661">
        <ele>159</ele>
        <time>2019-02-03T21:08:29.256Z</time>
      </trkpt>
      <trkpt lat="46.7516" lon="-0.15669">
        <ele>159</ele>
        <time>2019-02-03T21:08:30.444Z</time>
      </trkpt>
      <trkpt lat="46.75169" lon="-0.15681">
        <ele>159</ele>
        <time>2019-02-03T21:08:32.073Z</time>
      </trkpt>
      <trkpt lat="46.75211" lon="-0.15724">
        <ele>159</ele>
        <time>2019-02-03T21:08:38.927Z</time>
      </trkpt>
      <trkpt lat="46.7524" lon="-0.15748">
        <ele>159</ele>
        <time>2019-02-03T21:08:43.381Z</time>
      </trkpt>
      <trkpt lat="46.75258" lon="-0.15769">
        <ele>159</ele>
        <time>2019-02-03T21:08:46.460Z</time>
      </trkpt>
      <trkpt lat="46.75281" lon="-0.15797">
        <ele>159</ele>
        <time>2019-02-03T21:08:50.461Z</time>
      </trkpt>
      <trkpt lat="46.7529" lon="-0.15806">
        <ele>159</ele>
        <time>2019-02-03T21:08:51.919Z</time>
      </trkpt>
      <trkpt lat="46.75292" lon="-0.15807">
        <ele>159</ele>
        <time>2019-02-03T21:08:52.201Z</time>
      </trkpt>
      <trkpt lat="46.75299" lon="-0.15816">
        <ele>159</ele>
        <time>2019-02-03T21:08:53.447Z</time>
      </trkpt>
      <trkpt lat="46.75263" lon="-0.15926">
        <ele>159</ele>
        <time>2019-02-03T21:09:04.605Z</time>
      </trkpt>
      <trkpt lat="46.7525" lon="-0.15962">
        <ele>159</ele>
        <time>2019-02-03T21:09:08.330Z</time>
      </trkpt>
      <trkpt lat="46.75244" lon="-0.15973">
        <ele>159</ele>
        <time>2019-02-03T21:09:09.617Z</time>
      </trkpt>
      <trkpt lat="46.75224" lon="-0.16004">
        <ele>159.1</ele>
        <time>2019-02-03T21:09:13.515Z</time>
      </trkpt>
      <trkpt lat="46.75224" lon="-0.16004">
        <ele>159.1</ele>
        <time>2019-02-03T21:09:13.541Z</time>
      </trkpt>
      <trkpt lat="46.75224" lon="-0.16004">
        <ele>159.1</ele>
        <time>2019-02-03T21:09:13.564Z</time>
      </trkpt>
      <trkpt lat="46.75225" lon="-0.16007">
        <ele>159.1</ele>
        <time>2019-02-03T21:09:13.869Z</time>
      </trkpt>
      <trkpt lat="46.75248" lon="-0.16143">
        <ele>159.1</ele>
        <time>2019-02-03T21:09:26.691Z</time>
      </trkpt>
      <trkpt lat="46.75253" lon="-0.16192">
        <ele>158.1</ele>
        <time>2019-02-03T21:09:31.226Z</time>
      </trkpt>
      <trkpt lat="46.75251" lon="-0.16192">
        <ele>158.1</ele>
        <time>2019-02-03T21:09:31.510Z</time>
      </trkpt>
      <trkpt lat="46.75249" lon="-0.16192">
        <ele>158.1</ele>
        <time>2019-02-03T21:09:31.760Z</time>
      </trkpt>
      <trkpt lat="46.75253" lon="-0.16192">
        <ele>158.1</ele>
        <time>2019-02-03T21:09:32.294Z</time>
      </trkpt>
      <trkpt lat="46.75252" lon="-0.16231">
        <ele>156.7</ele>
        <time>2019-02-03T21:09:35.866Z</time>
      </trkpt>
      <trkpt lat="46.75248" lon="-0.16243">
        <ele>156.3</ele>
        <time>2019-02-03T21:09:37.087Z</time>
      </trkpt>
      <trkpt lat="46.75242" lon="-0.16247">
        <ele>156.1</ele>
        <time>2019-02-03T21:09:37.968Z</time>
      </trkpt>
      <trkpt lat="46.75232" lon="-0.16247">
        <ele>156.1</ele>
        <time>2019-02-03T21:09:39.304Z</time>
      </trkpt>
      <trkpt lat="46.75227" lon="-0.16252">
        <ele>155.9</ele>
        <time>2019-02-03T21:09:40.114Z</time>
      </trkpt>
      <trkpt lat="46.75228" lon="-0.16257">
        <ele>155.7</ele>
        <time>2019-02-03T21:09:40.591Z</time>
      </trkpt>
      <trkpt lat="46.7524" lon="-0.16307">
        <ele>153.9</ele>
        <time>2019-02-03T21:09:45.440Z</time>
      </trkpt>
      <trkpt lat="46.75243" lon="-0.16321">
        <ele>152.9</ele>
        <time>2019-02-03T21:09:46.783Z</time>
      </trkpt>
      <trkpt lat="46.75245" lon="-0.16329">
        <ele>152.3</ele>
        <time>2019-02-03T21:09:47.563Z</time>
      </trkpt>
      <trkpt lat="46.75254" lon="-0.16333">
        <ele>152.2</ele>
        <time>2019-02-03T21:09:48.820Z</time>
      </trkpt>
      <trkpt lat="46.75293" lon="-0.16359">
        <ele>151.1</ele>
        <time>2019-02-03T21:09:54.548Z</time>
      </trkpt>
      <trkpt lat="46.75334" lon="-0.16388">
        <ele>150</ele>
        <time>2019-02-03T21:10:00.635Z</time>
      </trkpt>
      <trkpt lat="46.75347" lon="-0.16394">
        <ele>149.8</ele>
        <time>2019-02-03T21:10:02.457Z</time>
      </trkpt>
      <trkpt lat="46.75358" lon="-0.16396">
        <ele>149.7</ele>
        <time>2019-02-03T21:10:03.938Z</time>
      </trkpt>
      <trkpt lat="46.7536" lon="-0.1641">
        <ele>149.2</ele>
        <time>2019-02-03T21:10:05.247Z</time>
      </trkpt>
      <trkpt lat="46.75372" lon="-0.16442">
        <ele>147.1</ele>
        <time>2019-02-03T21:10:08.595Z</time>
      </trkpt>
      <trkpt lat="46.75372" lon="-0.16443">
        <ele>147.1</ele>
        <time>2019-02-03T21:10:08.666Z</time>
      </trkpt>
      <trkpt lat="46.75352" lon="-0.16491">
        <ele>146.3</ele>
        <time>2019-02-03T21:10:13.808Z</time>
      </trkpt>
      <trkpt lat="46.75328" lon="-0.16561">
        <ele>143.8</ele>
        <time>2019-02-03T21:10:20.973Z</time>
      </trkpt>
      <trkpt lat="46.7531" lon="-0.16584">
        <ele>143</ele>
        <time>2019-02-03T21:10:24.169Z</time>
      </trkpt>
      <trkpt lat="46.75258" lon="-0.1669">
        <ele>138.2</ele>
        <time>2019-02-03T21:10:36.102Z</time>
      </trkpt>
      <trkpt lat="46.7515" lon="-0.16608">
        <ele>138.8</ele>
        <time>2019-02-03T21:10:52.366Z</time>
      </trkpt>
      <trkpt lat="46.75087" lon="-0.16557">
        <ele>140.9</ele>
        <time>2019-02-03T21:11:01.991Z</time>
      </trkpt>
      <trkpt lat="46.75081" lon="-0.16555">
        <ele>140.9</ele>
        <time>2019-02-03T21:11:02.813Z</time>
      </trkpt>
      <trkpt lat="46.75076" lon="-0.16558">
        <ele>140.3</ele>
        <time>2019-02-03T21:11:03.535Z</time>
      </trkpt>
      <trkpt lat="46.75072" lon="-0.16568">
        <ele>139.5</ele>
        <time>2019-02-03T21:11:04.595Z</time>
      </trkpt>
      <trkpt lat="46.7506" lon="-0.166">
        <ele>137.6</ele>
        <time>2019-02-03T21:11:07.934Z</time>
      </trkpt>
      <trkpt lat="46.75056" lon="-0.16601">
        <ele>137.4</ele>
        <time>2019-02-03T21:11:08.476Z</time>
      </trkpt>
      <trkpt lat="46.75021" lon="-0.16597">
        <ele>135.8</ele>
        <time>2019-02-03T21:11:13.166Z</time>
      </trkpt>
      <trkpt lat="46.74998" lon="-0.16593">
        <ele>135.3</ele>
        <time>2019-02-03T21:11:16.260Z</time>
      </trkpt>
      <trkpt lat="46.74985" lon="-0.16588">
        <ele>135.2</ele>
        <time>2019-02-03T21:11:18.056Z</time>
      </trkpt>
      <trkpt lat="46.74942" lon="-0.16569">
        <ele>135</ele>
        <time>2019-02-03T21:11:24.058Z</time>
      </trkpt>
      <trkpt lat="46.74936" lon="-0.16566">
        <ele>135.2</ele>
        <time>2019-02-03T21:11:24.905Z</time>
      </trkpt>
      <trkpt lat="46.74933" lon="-0.16585">
        <ele>133.9</ele>
        <time>2019-02-03T21:11:26.690Z</time>
      </trkpt>
      <trkpt lat="46.7493" lon="-0.16627">
        <ele>131.9</ele>
        <time>2019-02-03T21:11:30.555Z</time>
      </trkpt>
      <trkpt lat="46.74931" lon="-0.16676">
        <ele>130.2</ele>
        <time>2019-02-03T21:11:35.042Z</time>
      </trkpt>
      <trkpt lat="46.74933" lon="-0.16715">
        <ele>128.5</ele>
        <time>2019-02-03T21:11:38.622Z</time>
      </trkpt>
      <trkpt lat="46.7494" lon="-0.16732">
        <ele>128</ele>
        <time>2019-02-03T21:11:40.437Z</time>
      </trkpt>
      <trkpt lat="46.74946" lon="-0.16741">
        <ele>127.7</ele>
        <time>2019-02-03T21:11:41.586Z</time>
      </trkpt>
      <trkpt lat="46.74951" lon="-0.16752">
        <ele>127.1</ele>
        <time>2019-02-03T21:11:42.794Z</time>
      </trkpt>
      <trkpt lat="46.74954" lon="-0.16766">
        <ele>126.2</ele>
        <time>2019-02-03T21:11:44.137Z</time>
      </trkpt>
      <trkpt lat="46.74955" lon="-0.16799">
        <ele>124.3</ele>
        <time>2019-02-03T21:11:47.161Z</time>
      </trkpt>
      <trkpt lat="46.74951" lon="-0.16836">
        <ele>121.9</ele>
        <time>2019-02-03T21:11:50.590Z</time>
      </trkpt>
      <trkpt lat="46.74945" lon="-0.16884">
        <ele>120.2</ele>
        <time>2019-02-03T21:11:55.056Z</time>
      </trkpt>
      <trkpt lat="46.74945" lon="-0.16946">
        <ele>117</ele>
        <time>2019-02-03T21:12:00.731Z</time>
      </trkpt>
      <trkpt lat="46.74944" lon="-0.16972">
        <ele>117</ele>
        <time>2019-02-03T21:12:03.115Z</time>
      </trkpt>
      <trkpt lat="46.74942" lon="-0.16986">
        <ele>116.4</ele>
        <time>2019-02-03T21:12:04.424Z</time>
      </trkpt>
      <trkpt lat="46.74924" lon="-0.17032">
        <ele>114.4</ele>
        <time>2019-02-03T21:12:09.273Z</time>
      </trkpt>
      <trkpt lat="46.74915" lon="-0.17088">
        <ele>110.7</ele>
        <time>2019-02-03T21:12:14.538Z</time>
      </trkpt>
      <trkpt lat="46.74907" lon="-0.1718">
        <ele>103.4</ele>
        <time>2019-02-03T21:12:23.027Z</time>
      </trkpt>
      <trkpt lat="46.74904" lon="-0.17197">
        <ele>102.4</ele>
        <time>2019-02-03T21:12:24.634Z</time>
      </trkpt>
      <trkpt lat="46.74892" lon="-0.17231">
        <ele>100.7</ele>
        <time>2019-02-03T21:12:28.135Z</time>
      </trkpt>
      <trkpt lat="46.7485" lon="-0.17335">
        <ele>98.3</ele>
        <time>2019-02-03T21:12:39.186Z</time>
      </trkpt>
      <trkpt lat="46.74826" lon="-0.17386">
        <ele>94.3</ele>
        <time>2019-02-03T21:12:44.850Z</time>
      </trkpt>
      <trkpt lat="46.74792" lon="-0.17464">
        <ele>91.6</ele>
        <time>2019-02-03T21:12:53.313Z</time>
      </trkpt>
      <trkpt lat="46.7478" lon="-0.17508">
        <ele>90.5</ele>
        <time>2019-02-03T21:12:57.648Z</time>
      </trkpt>
      <trkpt lat="46.7478" lon="-0.17537">
        <ele>89.4</ele>
        <time>2019-02-03T21:13:00.303Z</time>
      </trkpt>
      <trkpt lat="46.74784" lon="-0.17596">
        <ele>91.8</ele>
        <time>2019-02-03T21:13:05.730Z</time>
      </trkpt>
      <trkpt lat="46.74785" lon="-0.17601">
        <ele>92.1</ele>
        <time>2019-02-03T21:13:06.195Z</time>
      </trkpt>
      <trkpt lat="46.74786" lon="-0.17603">
        <ele>92.3</ele>
        <time>2019-02-03T21:13:06.424Z</time>
      </trkpt>
      <trkpt lat="46.74786" lon="-0.17603">
        <ele>92.3</ele>
        <time>2019-02-03T21:13:06.447Z</time>
      </trkpt>
      <trkpt lat="46.74786" lon="-0.17604">
        <ele>92.4</ele>
        <time>2019-02-03T21:13:06.535Z</time>
      </trkpt>
      <trkpt lat="46.74797" lon="-0.17627">
        <ele>95.4</ele>
        <time>2019-02-03T21:13:09.103Z</time>
      </trkpt>
      <trkpt lat="46.74813" lon="-0.17646">
        <ele>96.2</ele>
        <time>2019-02-03T21:13:11.859Z</time>
      </trkpt>
      <trkpt lat="46.74853" lon="-0.17686">
        <ele>99.5</ele>
        <time>2019-02-03T21:13:18.337Z</time>
      </trkpt>
      <trkpt lat="46.74863" lon="-0.17695">
        <ele>99.9</ele>
        <time>2019-02-03T21:13:19.907Z</time>
      </trkpt>
      <trkpt lat="46.74867" lon="-0.17701">
        <ele>100.5</ele>
        <time>2019-02-03T21:13:20.673Z</time>
      </trkpt>
      <trkpt lat="46.74873" lon="-0.17721">
        <ele>102.6</ele>
        <time>2019-02-03T21:13:22.672Z</time>
      </trkpt>
      <trkpt lat="46.74875" lon="-0.17733">
        <ele>102.7</ele>
        <time>2019-02-03T21:13:23.803Z</time>
      </trkpt>
      <trkpt lat="46.74876" lon="-0.17744">
        <ele>102.8</ele>
        <time>2019-02-03T21:13:24.819Z</time>
      </trkpt>
      <trkpt lat="46.74867" lon="-0.17739">
        <ele>103.5</ele>
        <time>2019-02-03T21:13:26.106Z</time>
      </trkpt>
      <trkpt lat="46.74838" lon="-0.17722">
        <ele>105.6</ele>
        <time>2019-02-03T21:13:30.281Z</time>
      </trkpt>
      <trkpt lat="46.74777" lon="-0.17674">
        <ele>103.5</ele>
        <time>2019-02-03T21:13:39.539Z</time>
      </trkpt>
      <trkpt lat="46.7477" lon="-0.17669">
        <ele>103.2</ele>
        <time>2019-02-03T21:13:40.580Z</time>
      </trkpt>
      <trkpt lat="46.74744" lon="-0.17666">
        <ele>102.9</ele>
        <time>2019-02-03T21:13:44.064Z</time>
      </trkpt>
      <trkpt lat="46.74727" lon="-0.17663">
        <ele>102.5</ele>
        <time>2019-02-03T21:13:46.352Z</time>
      </trkpt>
      <trkpt lat="46.74706" lon="-0.17666">
        <ele>101.8</ele>
        <time>2019-02-03T21:13:49.171Z</time>
      </trkpt>
      <trkpt lat="46.74672" lon="-0.17675">
        <ele>101.3</ele>
        <time>2019-02-03T21:13:53.787Z</time>
      </trkpt>
      <trkpt lat="46.74657" lon="-0.17677">
        <ele>101.7</ele>
        <time>2019-02-03T21:13:55.799Z</time>
      </trkpt>
      <trkpt lat="46.74651" lon="-0.17675">
        <ele>101.6</ele>
        <time>2019-02-03T21:13:56.621Z</time>
      </trkpt>
      <trkpt lat="46.74644" lon="-0.17667">
        <ele>100.9</ele>
        <time>2019-02-03T21:13:57.809Z</time>
      </trkpt>
      <trkpt lat="46.74636" lon="-0.17648">
        <ele>100</ele>
        <time>2019-02-03T21:13:59.850Z</time>
      </trkpt>
      <trkpt lat="46.74625" lon="-0.17616">
        <ele>99.3</ele>
        <time>2019-02-03T21:14:03.127Z</time>
      </trkpt>
      <trkpt lat="46.7461" lon="-0.17597">
        <ele>99</ele>
        <time>2019-02-03T21:14:05.780Z</time>
      </trkpt>
      <trkpt lat="46.74589" lon="-0.17583">
        <ele>98.8</ele>
        <time>2019-02-03T21:14:08.864Z</time>
      </trkpt>
      <trkpt lat="46.74555" lon="-0.17566">
        <ele>97.4</ele>
        <time>2019-02-03T21:14:13.665Z</time>
      </trkpt>
      <trkpt lat="46.74541" lon="-0.1755">
        <ele>96.3</ele>
        <time>2019-02-03T21:14:16.041Z</time>
      </trkpt>
      <trkpt lat="46.7452" lon="-0.17519">
        <ele>94.9</ele>
        <time>2019-02-03T21:14:20.032Z</time>
      </trkpt>
      <trkpt lat="46.74506" lon="-0.1751">
        <ele>95.9</ele>
        <time>2019-02-03T21:14:22.076Z</time>
      </trkpt>
      <trkpt lat="46.74499" lon="-0.1751">
        <ele>96.4</ele>
        <time>2019-02-03T21:14:23.011Z</time>
      </trkpt>
      <trkpt lat="46.74486" lon="-0.17517">
        <ele>97</ele>
        <time>2019-02-03T21:14:24.862Z</time>
      </trkpt>
      <trkpt lat="46.74469" lon="-0.17525">
        <ele>97.8</ele>
        <time>2019-02-03T21:14:27.248Z</time>
      </trkpt>
      <trkpt lat="46.74456" lon="-0.17527">
        <ele>99.4</ele>
        <time>2019-02-03T21:14:28.994Z</time>
      </trkpt>
      <trkpt lat="46.74447" lon="-0.17525">
        <ele>100.9</ele>
        <time>2019-02-03T21:14:30.210Z</time>
      </trkpt>
      <trkpt lat="46.74438" lon="-0.17518">
        <ele>102.7</ele>
        <time>2019-02-03T21:14:31.572Z</time>
      </trkpt>
      <trkpt lat="46.74428" lon="-0.17505">
        <ele>104.8</ele>
        <time>2019-02-03T21:14:33.361Z</time>
      </trkpt>
      <trkpt lat="46.74377" lon="-0.17416">
        <ele>113.4</ele>
        <time>2019-02-03T21:14:43.982Z</time>
      </trkpt>
      <trkpt lat="46.7437" lon="-0.17407">
        <ele>113.9</ele>
        <time>2019-02-03T21:14:45.228Z</time>
      </trkpt>
      <trkpt lat="46.74364" lon="-0.17404">
        <ele>114.3</ele>
        <time>2019-02-03T21:14:46.075Z</time>
      </trkpt>
      <trkpt lat="46.74333" lon="-0.17397">
        <ele>116.3</ele>
        <time>2019-02-03T21:14:50.266Z</time>
      </trkpt>
      <trkpt lat="46.74314" lon="-0.17401">
        <ele>117.1</ele>
        <time>2019-02-03T21:14:52.831Z</time>
      </trkpt>
      <trkpt lat="46.74278" lon="-0.17415">
        <ele>118</ele>
        <time>2019-02-03T21:14:57.808Z</time>
      </trkpt>
      <trkpt lat="46.74225" lon="-0.17426">
        <ele>120.8</ele>
        <time>2019-02-03T21:15:04.960Z</time>
      </trkpt>
      <trkpt lat="46.74194" lon="-0.1743">
        <ele>123</ele>
        <time>2019-02-03T21:15:09.118Z</time>
      </trkpt>
      <trkpt lat="46.74142" lon="-0.17429">
        <ele>125.9</ele>
        <time>2019-02-03T21:15:16.066Z</time>
      </trkpt>
      <trkpt lat="46.74117" lon="-0.17429">
        <ele>126.8</ele>
        <time>2019-02-03T21:15:19.406Z</time>
      </trkpt>
      <trkpt lat="46.74102" lon="-0.17426">
        <ele>127.2</ele>
        <time>2019-02-03T21:15:21.429Z</time>
      </trkpt>
      <trkpt lat="46.74082" lon="-0.17417">
        <ele>127.9</ele>
        <time>2019-02-03T21:15:24.225Z</time>
      </trkpt>
      <trkpt lat="46.74055" lon="-0.17401">
        <ele>127.6</ele>
        <time>2019-02-03T21:15:28.118Z</time>
      </trkpt>
      <trkpt lat="46.73995" lon="-0.17356">
        <ele>128</ele>
        <time>2019-02-03T21:15:37.131Z</time>
      </trkpt>
      <trkpt lat="46.73962" lon="-0.1733">
        <ele>127.6</ele>
        <time>2019-02-03T21:15:42.141Z</time>
      </trkpt>
      <trkpt lat="46.73942" lon="-0.17311">
        <ele>126.9</ele>
        <time>2019-02-03T21:15:45.329Z</time>
      </trkpt>
      <trkpt lat="46.73882" lon="-0.17269">
        <ele>126</ele>
        <time>2019-02-03T21:15:54.219Z</time>
      </trkpt>
      <trkpt lat="46.73854" lon="-0.17254">
        <ele>126</ele>
        <time>2019-02-03T21:15:58.204Z</time>
      </trkpt>
      <trkpt lat="46.73795" lon="-0.17229">
        <ele>125.2</ele>
        <time>2019-02-03T21:16:06.412Z</time>
      </trkpt>
      <trkpt lat="46.7367" lon="-0.17177">
        <ele>125.4</ele>
        <time>2019-02-03T21:16:23.777Z</time>
      </trkpt>
      <trkpt lat="46.73639" lon="-0.17167">
        <ele>125</ele>
        <time>2019-02-03T21:16:28.018Z</time>
      </trkpt>
      <trkpt lat="46.73594" lon="-0.17157">
        <ele>124.7</ele>
        <time>2019-02-03T21:16:34.099Z</time>
      </trkpt>
      <trkpt lat="46.73528" lon="-0.1714">
        <ele>124</ele>
        <time>2019-02-03T21:16:43.053Z</time>
      </trkpt>
      <trkpt lat="46.73506" lon="-0.17133">
        <ele>123.8</ele>
        <time>2019-02-03T21:16:46.061Z</time>
      </trkpt>
      <trkpt lat="46.73438" lon="-0.17101">
        <ele>122.9</ele>
        <time>2019-02-03T21:16:55.606Z</time>
      </trkpt>
      <trkpt lat="46.73403" lon="-0.17077">
        <ele>123.4</ele>
        <time>2019-02-03T21:17:00.772Z</time>
      </trkpt>
      <trkpt lat="46.7338" lon="-0.17061">
        <ele>123.5</ele>
        <time>2019-02-03T21:17:04.176Z</time>
      </trkpt>
      <trkpt lat="46.73359" lon="-0.1705">
        <ele>123.9</ele>
        <time>2019-02-03T21:17:07.157Z</time>
      </trkpt>
      <trkpt lat="46.73335" lon="-0.17041">
        <ele>124.4</ele>
        <time>2019-02-03T21:17:10.468Z</time>
      </trkpt>
      <trkpt lat="46.73309" lon="-0.17034">
        <ele>124.2</ele>
        <time>2019-02-03T21:17:14.000Z</time>
      </trkpt>
      <trkpt lat="46.73291" lon="-0.1703">
        <ele>124.1</ele>
        <time>2019-02-03T21:17:16.432Z</time>
      </trkpt>
      <trkpt lat="46.73268" lon="-0.17028">
        <ele>124</ele>
        <time>2019-02-03T21:17:19.510Z</time>
      </trkpt>
      <trkpt lat="46.73253" lon="-0.17028">
        <ele>124</ele>
        <time>2019-02-03T21:17:21.514Z</time>
      </trkpt>
      <trkpt lat="46.73241" lon="-0.1703">
        <ele>124.4</ele>
        <time>2019-02-03T21:17:23.128Z</time>
      </trkpt>
      <trkpt lat="46.73214" lon="-0.17035">
        <ele>125</ele>
        <time>2019-02-03T21:17:26.764Z</time>
      </trkpt>
      <trkpt lat="46.73168" lon="-0.17044">
        <ele>125</ele>
        <time>2019-02-03T21:17:32.964Z</time>
      </trkpt>
      <trkpt lat="46.7316" lon="-0.17015">
        <ele>124.7</ele>
        <time>2019-02-03T21:17:35.826Z</time>
      </trkpt>
      <trkpt lat="46.73136" lon="-0.16935">
        <ele>125</ele>
        <time>2019-02-03T21:17:43.822Z</time>
      </trkpt>
      <trkpt lat="46.73115" lon="-0.16848">
        <ele>125.4</ele>
        <time>2019-02-03T21:17:52.268Z</time>
      </trkpt>
      <trkpt lat="46.73106" lon="-0.16816">
        <ele>125.2</ele>
        <time>2019-02-03T21:17:55.435Z</time>
      </trkpt>
      <trkpt lat="46.73088" lon="-0.1677">
        <ele>126</ele>
        <time>2019-02-03T21:18:00.285Z</time>
      </trkpt>
      <trkpt lat="46.73059" lon="-0.16705">
        <ele>125.7</ele>
        <time>2019-02-03T21:18:07.387Z</time>
      </trkpt>
      <trkpt lat="46.73043" lon="-0.16658">
        <ele>124.7</ele>
        <time>2019-02-03T21:18:12.192Z</time>
      </trkpt>
      <trkpt lat="46.73027" lon="-0.16606">
        <ele>122.8</ele>
        <time>2019-02-03T21:18:17.411Z</time>
      </trkpt>
      <trkpt lat="46.73017" lon="-0.16589">
        <ele>122.6</ele>
        <time>2019-02-03T21:18:19.462Z</time>
      </trkpt>
      <trkpt lat="46.73" lon="-0.16581">
        <ele>122.9</ele>
        <time>2019-02-03T21:18:21.848Z</time>
      </trkpt>
      <trkpt lat="46.72993" lon="-0.16574">
        <ele>122.9</ele>
        <time>2019-02-03T21:18:22.982Z</time>
      </trkpt>
      <trkpt lat="46.7297" lon="-0.16556">
        <ele>123.2</ele>
        <time>2019-02-03T21:18:26.469Z</time>
      </trkpt>
      <trkpt lat="46.72943" lon="-0.1654">
        <ele>123.9</ele>
        <time>2019-02-03T21:18:30.362Z</time>
      </trkpt>
      <trkpt lat="46.72913" lon="-0.16527">
        <ele>123.1</ele>
        <time>2019-02-03T21:18:34.543Z</time>
      </trkpt>
      <trkpt lat="46.729" lon="-0.1652">
        <ele>123.2</ele>
        <time>2019-02-03T21:18:36.394Z</time>
      </trkpt>
      <trkpt lat="46.72892" lon="-0.16518">
        <ele>123.2</ele>
        <time>2019-02-03T21:18:37.478Z</time>
      </trkpt>
      <trkpt lat="46.72848" lon="-0.16524">
        <ele>123.4</ele>
        <time>2019-02-03T21:18:43.382Z</time>
      </trkpt>
      <trkpt lat="46.72839" lon="-0.16526">
        <ele>123.7</ele>
        <time>2019-02-03T21:18:44.574Z</time>
      </trkpt>
    </trkseg>
  </trk>
</gpx>